This demonstration page uses our WeatherBlox Daily Observations layout. Learn more.

Left ArrowRight Arrow

38.89511, -77.03637

Hourly Observations for February 11, 2017

Temp ( °F °C ) Dew Point ( °F °C ) Humidity (%) Winds ( mph kmh ) Pressure ( in mb ) Visibility ( mi km ) Precip ( " mm )
12:52 am 00:52 Cloudy 38 3.3 17 -8.3 43 43 S 13 20 30.02 1017 10 16 0.00 0.00
1:52 am 01:52 Partly Cloudy 37 2.8 15 -9.4 41 41 S 7 11 30.00 1016 10 16 0.00 0.00
2:52 am 02:52 Partly Cloudy 36 2.2 18 -7.8 48 48 SSW 7 11 29.99 1016 10 16 0.00 0.00
3:52 am 03:52 Partly Cloudy 35 1.7 20 -6.7 54 54 SSW 7 11 29.96 1015 10 16 0.00 0.00
4:52 am 04:52 Mostly Cloudy 37 2.8 21 -6.1 52 52 Calm 29.96 1015 10 16 0.00 0.00
5:52 am 05:52 Cloudy 40 4.4 21 -6.1 47 47 SW 3 6 29.96 1015 10 16 0.00 0.00
6:52 am 06:52 Mostly Cloudy 39 3.9 23 -5 53 53 WSW 3 6 29.97 1015 10 16 0.00 0.00
7:52 am 07:52 Mostly Cloudy 41 5 26 -3.3 55 55 SSW 7 11 29.96 1014 10 16 0.00 0.00
8:52 am 08:52 Mostly Cloudy 45 7.2 28 -2.2 52 52 S 7 11 29.97 1015 10 16 0.00 0.00
9:52 am 09:52 Mostly Cloudy 48 8.9 26 -3.3 42 42 SSW 14 22 29.99 1016 10 16 0.00 0.00
10:52 am 10:52 Mostly Cloudy 49 9.4 31 -0.6 50 50 S 8 13 29.99 1016 10 16 0.00 0.00
11:52 am 11:52 Mostly Cloudy 51 10.6 29 -1.7 43 43 SSW 9 15 29.98 1015 10 16 0.00 0.00
12:52 pm 12:52 Mostly Cloudy 50 10 32 0 50 50 S 8 13 29.95 1014 10 16 0.00 0.00
1:52 pm 13:52 Mostly Cloudy 49 9.4 35 1.7 59 59 S 7 11 29.92 1013 10 16 0.00 0.00
2:52 pm 14:52 Mostly Cloudy 50 10 35 1.7 57 57 S 7 11 29.92 1013 10 16 0.00 0.00
3:52 pm 15:52 Cloudy 52 11.1 32 0 47 47 S 3 6 29.95 1014 10 16 0.00 0.00
4:52 pm 16:52 Cloudy 50 10 34 1.1 54 54 S 5 7 29.96 1014 10 16 0.00 0.00
5:52 pm 17:52 Cloudy 50 10 32 0 50 50 S 3 6 29.97 1015 10 16 0.00 0.00
6:52 pm 18:52 Cloudy 49 9.4 35 1.7 59 59 S 3 6 29.99 1016 10 16 0.00 0.00
7:52 pm 19:52 Cloudy 49 9.4 34 1.1 56 56 Calm 30.01 1016 10 16 0.00 0.00
8:52 pm 20:52 Cloudy 48 8.9 35 1.7 61 61 Calm 30.01 1016 10 16 0.00 0.00
9:52 pm 21:52 Cloudy 46 7.8 37 2.8 71 71 Calm 30.01 1016 10 16 0.00 0.00
10:52 pm 22:52 Cloudy 48 8.9 35 1.7 61 61 Calm 30.01 1016 10 16 0.00 0.00
11:52 pm 23:52 Cloudy 48 8.9 35 1.7 61 61 Calm 30.00 1016 10 16 0.00 0.00

Powered by AerisWeather